Regional Weather Roundup
Issued by NWS Northern Indiana

Home | Current Version | Previous Version | Text Only | Print | Product List | Glossary On
Versions: 1 2 3 4 5 6 7 8 9 10 11 12 13 14 15 16 17 18 19 20 21 22 23 24 25 26 27 28 29 30 31 32 33 34 35 36 37 38 39 40 41 42 43 44 45 46 47 48 49 50
000
ASUS43 KIWX 210600
RWRIWX

KIWX WEATHER ROUNDUP
NATIONAL WEATHER SERVICE NORTHERN INDIANA
200 AM EDT SAT OCT 21 2017

NOTE: "FAIR" INDICATES FEW OR NO CLOUDS BELOW 12,000 FEET WITH NO
SIGNIFICANT WEATHER AND/OR OBSTRUCTIONS TO VISIBILITY.

* THESE STATIONS ARE NOT UNDER NWS QUALITY CONTROL. THEY ALSO MAY NOT
  REPORT WEATHER SUCH AS PRECIPITATION OR FOG.

INZ001>027-210700-
NORTHERN INDIANA

CITY           SKY/WX    TMP DP  RH WIND       PRES   REMARKS
MICHIGAN CITY* PTCLDY    61  46  59 S9        30.10S
KNOX*          CLOUDY    59  48  67 S6        30.12R
SOUTH BEND     CLOUDY    58  49  72 S5        30.13R
6HR MIN TEMP:  58; 6HR MAX TEMP:  64;

GOSHEN         CLOUDY    60  47  61 S9        30.13S
6HR MIN TEMP:  59; 6HR MAX TEMP:  65;

MONTICELLO*    CLOUDY    57  50  75 CALM      30.12R
6HR MIN TEMP:  57; 6HR MAX TEMP:  65;

WARSAW*        CLOUDY    59  48  67 CALM      30.14S
AUBURN*        PTCLDY    52  48  87 CALM      30.16S
FORT WAYNE     CLOUDY    54  48  80 S3        30.16S
6HR MIN TEMP:  52; 6HR MAX TEMP:  62;

PERU/GRISSOM   CLOUDY    55  49  80 S7        30.13S
6HR MIN TEMP:  55; 6HR MAX TEMP:  63;


$$
INZ028>050-210700-
CENTRAL INDIANA

CITY           SKY/WX    TMP DP  RH WIND       PRES   REMARKS
LAFAYETTE      CLOUDY    58  50  75 S3        30.12S
6HR MIN TEMP:  53; 6HR MAX TEMP:  62;

KOKOMO*        PTCLDY    54  49  83 S6        30.15S
6HR MIN TEMP:  53; 6HR MAX TEMP:  61;

MUNCIE*        CLOUDY    62  50  64 S9        30.16S
6HR MIN TEMP:  57; 6HR MAX TEMP:  67;

INDIANAPOLIS   CLOUDY    56  48  74 S5        30.15F
6HR MIN TEMP:  55; 6HR MAX TEMP:  65;


$$
MIZ043>046-050>051-056>058-064>065-071>073-077>080-210700-
SOUTHWEST LOWER MICHIGAN

CITY           SKY/WX    TMP DP  RH WIND       PRES   REMARKS
BATTLE CREEK   MOCLDY    59  50  72 S10       30.13S
6HR MIN TEMP:  59; 6HR MAX TEMP:  66;

BENTON HARBOR  CLOUDY    62  47  57 S7        30.10S
6HR MIN TEMP:  61; 6HR MAX TEMP:  68;

COLDWATER*     CLOUDY    58  49  70 S6        30.14S
6HR MIN TEMP:  51; 6HR MAX TEMP:  62;

HILLSDALE*     CLOUDY    57  48  72 S6        30.16S
HOLLAND        CLOUDY    54  48  80 S6        30.10R
6HR MIN TEMP:  54; 6HR MAX TEMP:  65;

GRAND RAPIDS   CLOUDY    59  51  75 S7        30.10R
6HR MIN TEMP:  58; 6HR MAX TEMP:  64;

KALAMAZOO      PTCLDY    57  47  69 S5        30.13R
6HR MIN TEMP:  55; 6HR MAX TEMP:  67;

STURGIS*       PTCLDY    56  48  74 S3        30.13S
6HR MIN TEMP:  55; 6HR MAX TEMP:  65;

THREE RIVERS*  FAIR      55  49  80 S3        30.14R
6HR MIN TEMP:  55; 6HR MAX TEMP:  66;


$$
OHZ001>008-015>018-024>025-210700-
NORTHWEST OHIO

CITY           SKY/WX    TMP DP  RH WIND       PRES   REMARKS
DEFIANCE       CLEAR     52  47  83 CALM      30.17R
6HR MIN TEMP:  52; 6HR MAX TEMP:  67;

FINDLAY        PTCLDY    55  45  68 SE6       30.18R
6HR MIN TEMP:  54; 6HR MAX TEMP:  64;

TOLEDO EXPRESS CLEAR     56  50  80 S5        30.17R
6HR MIN TEMP:  56; 6HR MAX TEMP:  63;

TOLEDO METCALF CLEAR     55  45  68 S8        30.18S
6HR MIN TEMP:  55; 6HR MAX TEMP:  64;

LIMA           CLEAR     54  50  86 S7        30.19R
6HR MIN TEMP:  53; 6HR MAX TEMP:  64;


$$
AND FOR LAKE MICHIGAN COASTAL AND OPEN LAKE BUOY OBSERVATIONS

STATION/POSITION TEMP    WIND        PRES    VSBY  WAVE
                 AIR SEA DIR/SP/G                  HT/PER
                 (F)     (DEG/KT/KT) (MB)    (MI)  (FT/S)
CALUMET HARBOR    64     180/  7/ 11 1017.4S
MICHIGAN CITY     62     160/  9/ 11   N/A
BURNS HARBOR      63     190/ 13/ 17 1019.0F
SAINT JOSEPH      63     190/  3/  7 1019.3
SOUTH LAKE BUOY   64 61  180/ 16/ 17 1017.5          2/ 3
4 MI NW BRIDGMAN  63 59  190/ 10/ 12 1019.2R         1/ 3
MICHIGAN CITY     60 58  180/ 10/ 12   N/A           1/ 2

$$
&&



USA.gov is the U.S. government's official web portal to all federal, state and local government web resources and services.